Weather History for KMOT - July, 2013

Change the Weather History Date:

Tuesday, July 23, 2013

  Actual Average Record
Temperature  
Mean Temperature 65 °F 70 °F  
Max Temperature 72 °F 83 °F 103 °F (2007)
Min Temperature 57 °F 58 °F 42 °F (1918)
Degree Days  
Heating Degree Days 1    
Cooling Degree Days 0 6  
Month to date cooling degree days 119 120  
Year to date cooling degree days 193 209  
Since 1 June cooling degree days 183 193  
Growing Degree Days 14 (Base 50)    
Moisture  
Dew Point 54 °F    
Average Humidity 73    
Maximum Humidity 93    
Minimum Humidity 53    
Precipitation  
Precipitation 0.00 in 0.07 in 2.86 in (1970)
Month to date precipitation 4.14 1.94  
Year to date precipitation 17.11 10.91  
Sea Level Pressure  
Sea Level Pressure 30.05 in    
Wind  
Wind Speed 3 mph (ESE)    
Max Wind Speed 9 mph    
Max Gust Speed 12 mph    
Visibility 10 miles    
Events      
T = Trace of Precipitation, MM = Missing Value Source: NWS Daily Summary

Daily Weather History Graph

Daily Weather History Graph

Search for Another Location

Airport or City:

Trip Planner

Search our weather history database for the weather conditions in past years. The results will help you decide how hot, cold, wet, or windy it might be!

Date:

Astronomy

Jul. 23, 2013 Rise Set
Actual Time 6:09 AM CDT 9:32 PM CDT
Civil Twilight 5:31 AM CDT 10:11 PM CDT
Nautical Twilight 4:40 AM CDT 11:01 PM CDT
Astronomical Twilight 3:33 AM CDT 12:06 AM CDT
Moon 9:48 PM CDT (7/23) 7:30 AM CDT (7/23)
Length of Visible Light 16h 39m
Length of Day
15h 23m
Full, 99% of the Moon is Illuminated
Jul 23
Full
Jul 29
Last Quarter
Aug 6
New
Aug 14
First Quarter
Aug 20
Full

Hourly Weather History & Observations

Time (CDT) Temp. Dew Point Humidity Pressure Visibility Wind Dir Wind Speed Gust Speed Precip Events Conditions
12:54 AM 60.1 °F 55.0 °F 83% 30.00 in 10.0 mi East 4.6 mph - N/A   Overcast
1:54 AM 60.1 °F 55.0 °F 83% 30.00 in 10.0 mi Calm Calm - N/A   Overcast
2:54 AM 59.0 °F 55.0 °F 87% 30.00 in 10.0 mi SE 3.5 mph - N/A   Mostly Cloudy
3:54 AM 57.9 °F 55.0 °F 90% 30.01 in 10.0 mi Calm Calm - N/A   Overcast
4:54 AM 57.0 °F 55.0 °F 93% 30.03 in 10.0 mi Calm Calm - N/A   Overcast
5:54 AM 57.9 °F 55.0 °F 90% 30.03 in 10.0 mi Calm Calm - N/A   Scattered Clouds
6:54 AM 57.0 °F 54.0 °F 89% 30.04 in 10.0 mi Calm Calm - N/A   Mostly Cloudy
7:54 AM 61.0 °F 55.9 °F 83% 30.04 in 10.0 mi ESE 3.5 mph - N/A   Clear
8:54 AM 64.0 °F 55.0 °F 73% 30.06 in 10.0 mi ESE 4.6 mph - N/A   Clear
9:54 AM 66.0 °F 55.0 °F 68% 30.07 in 10.0 mi ESE 6.9 mph - N/A   Mostly Cloudy
10:54 AM 68.0 °F 53.1 °F 59% 30.07 in 10.0 mi East 5.8 mph - N/A   Scattered Clouds
11:54 AM 66.9 °F 52.0 °F 59% 30.08 in 10.0 mi Calm Calm - N/A   Overcast
12:54 PM 69.1 °F 53.1 °F 57% 30.08 in 10.0 mi SE 8.1 mph - N/A   Overcast
1:54 PM 69.1 °F 52.0 °F 54% 30.08 in 10.0 mi ESE 3.5 mph - N/A   Overcast
2:54 PM 69.1 °F 51.1 °F 53% 30.08 in 10.0 mi Calm Calm - N/A   Overcast
3:54 PM 70.0 °F 52.0 °F 53% 30.07 in 10.0 mi ESE 6.9 mph - N/A   Overcast
4:54 PM 71.1 °F 53.1 °F 53% 30.06 in 10.0 mi SE 3.5 mph - N/A   Scattered Clouds
5:54 PM 70.0 °F 55.0 °F 59% 30.04 in 10.0 mi Calm Calm - N/A   Mostly Cloudy
6:54 PM 71.1 °F 55.0 °F 57% 30.03 in 10.0 mi East 3.5 mph - N/A   Mostly Cloudy
7:54 PM 70.0 °F 57.0 °F 63% 30.03 in 10.0 mi ESE 4.6 mph - N/A   Mostly Cloudy
8:54 PM 66.9 °F 55.9 °F 68% 30.04 in 10.0 mi SE 3.5 mph - N/A   Clear
9:54 PM 64.0 °F 54.0 °F 70% 30.04 in 10.0 mi Calm Calm - N/A   Clear
10:54 PM 64.0 °F 53.1 °F 67% 30.06 in 10.0 mi South 3.5 mph - N/A   Scattered Clouds
11:54 PM 62.1 °F 54.0 °F 75% 30.06 in 10.0 mi South 3.5 mph - N/A   Clear